www.pogodaiklimat.ru

Погода и климат >> Архив погоды >> Бразилия >> Patos


ПОГОДА в Patos

  • Прогноз погоды в Patos
  • Монитор погоды в Patos
  • Климат города

АРХИВ ПОГОДЫ в Patos

Время (UTC), дата Ветер
(напр.,м/с)
 
Видим.   Явления Облачность Т
(С)
Тd
(С)
f
(%)
Тe
(С)
Тes
(С)
Комфортность P
(гПа)
Po
(гПа)
Тmin
(С)
Tmax
(С)
R
(мм)
R24
(мм)
S
(см)
10 9.10 В 3
{5}
н/о н/о +26.0 +10.9 39 +27 +27 жарко 1015.8 985.7
11 9.10 В 4
{6}
н/о н/о +27.4 +9.5 33 +28 +28 жарко 1016.2 986.2
12 9.10 В 4
{6}
н/о н/о +29.6 +8.0 26 +29 +29 жарко 1015.9 986.1
13 9.10 ЮВ 3
{6}
н/о н/о +31.5 +5.4 19 +29 +29 жарко 1015.0 985.4
14 9.10 В 4
{6}
н/о н/о +33.3 +1.9 14 +30 +30 жарко 1013.8 984.4
15 9.10 В 3
{6}
н/о н/о +34.3 +0.9 12 +31 +31 жарко 1012.4 983.2
16 9.10 В 3
{6}
н/о н/о +34.7 -1.7 10 +31 +31 жарко 1010.8 981.6
17 9.10 В 3
{6}
н/о н/о +35.3 -3.0 9 +31 +31 жарко 1009.6 980.5
18 9.10 В 3
{5}
н/о н/о +35.8 -2.6 9 +32 +32 жарко 1009.1 980.1
19 9.10 В 3
{5}
н/о н/о +34.7 -2.5 9 +31 +31 жарко 1009.2 980.1
20 9.10 В 3
{5}
н/о н/о +33.4 -1.5 11 +30 +30 жарко 1009.6 980.4
21 9.10 ЮВ 3
{5}
н/о н/о +32.0 +0.8 14 +29 +29 жарко 1010.1 980.7
22 9.10 В 4
{6}
н/о н/о +29.8 +8.0 26 +29 +29 жарко 1011.1 981.5
23 9.10 В 4
{6}
н/о н/о +28.5 +7.6 27 +28 +28 жарко 1012.0 982.2
00 10.10 В 4
{6}
н/о н/о +26.9 +9.6 34 +27 +27 жарко 1013.0 983.0
01 10.10 В 2
{6}
н/о н/о +25.8 +10.7 39 +27 +27 жарко 1013.3 983.2
02 10.10 В 3
{5}
н/о н/о +25.1 +10.5 40 +26 +26 жарко 1013.2 983.0
03 10.10 В 3
{5}
н/о н/о +24.3 +11.1 43 +26 +26 жарко 1012.5 982.3
04 10.10 В 4
{6}
н/о н/о +23.9 +11.5 46 +25 +25 комфорт 1012.1 981.9
05 10.10 В 3
{6}
н/о н/о +23.3 +12.8 52 +26 +26 жарко 1012.4 982.1
06 10.10 ЮВ 3
{5}
н/о н/о +23.2 +12.6 51 +26 +26 жарко 1012.5 982.2
07 10.10 ЮВ 2
{5}
н/о н/о +22.9 +12.4 52 +26 +26 жарко 1012.6 982.2
08 10.10 В 3
{5}
н/о н/о +22.9 +12.9 53 +26 +26 жарко 1013.1 982.7
09 10.10 ЮВ 3
{5}
н/о н/о +24.0 +13.0 50 +26 +26 жарко 1013.5 983.2
10 10.10 В 3
{5}
н/о н/о +25.6 +11.9 42 +27 +27 жарко 1014.2 984.1
11 10.10 ЮВ 3
{6}
н/о н/о +27.6 +9.9 33 +28 +28 жарко 1014.5 984.6
12 10.10 В 3
{5}
н/о н/о +29.6 +8.0 26 +29 +29 жарко 1014.6 984.8
13 10.10 ЮВ 3
{6}
н/о н/о +31.2 +5.6 20 +29 +29 жарко 1013.9 984.3
14 10.10 В 3
{5}
н/о н/о +33.0 +3.4 15 +30 +30 жарко 1012.8 983.4
15 10.10 В 2
{5}
н/о н/о +34.8 +1.9 13 +32 +32 жарко 1011.2 982.0
16 10.10 В 2
{5}
н/о н/о +35.0 -1.4 10 +31 +31 жарко 1009.7 980.6
17 10.10 ЮВ 3
{5}
н/о н/о +34.9 -0.3 11 +31 +31 жарко 1008.8 979.7
18 10.10 В 2
{5}
н/о н/о +35.6 -0.5 10 +32 +32 жарко 1008.1 979.1
19 10.10 ЮВ 2
{5}
н/о н/о +35.1 -1.3 10 +31 +31 жарко 1008.4 979.3
20 10.10 В 2
{4}
н/о н/о +33.7 -0.6 11 +30 +30 жарко 1008.8 979.6
21 10.10 В 2
{4}
н/о н/о +32.0 +2.8 16 +29 +29 жарко 1009.5 980.1
22 10.10 В 4
{6}
н/о н/о +30.6 +5.3 20 +29 +29 жарко 1010.5 981.0
23 10.10 В 4
{7}
н/о н/о +29.2 +7.2 25 +28 +28 жарко 1011.8 982.1
00 11.10 В 4
{7}
н/о н/о +27.4 +9.2 32 +28 +28 жарко 1013.1 983.2
01 11.10 В 4
{7}
н/о н/о +26.1 +9.9 36 +27 +27 жарко 1013.8 983.7
02 11.10 В 3
{6}
н/о н/о +24.9 +12.6 46 +27 +27 жарко 1013.9 983.7
03 11.10 ЮВ 3
{6}
н/о н/о +24.6 +12.1 46 +26 +26 жарко 1013.9 983.7
04 11.10 В 3
{5}
н/о н/о +24.2 +12.5 48 +26 +26 жарко 1013.4 983.1
05 11.10 В 3
{5}
н/о н/о +24.0 +12.7 49 +26 +26 жарко 1013.4 983.1
06 11.10 ЮВ 2
{4}
н/о н/о +23.6 +13.0 51 +26 +26 жарко 1013.3 983.0
07 11.10 В 2
{3}
н/о н/о +23.5 +13.3 53 +26 +26 жарко 1013.6 983.3
08 11.10 В 1
{3}
н/о н/о +22.9 +13.8 56 +26 +26 жарко 1014.3 983.9
09 11.10 В 3
{4}
н/о н/о +24.6 +13.3 49 +27 +27 жарко 1014.6 984.4
10 11.10 В 3
{5}
н/о н/о +25.7 +11.5 41 +27 +27 жарко 1015.3 985.1
11 11.10 В 3
{6}
н/о н/о +27.3 +9.5 33 +28 +28 жарко 1015.7 985.7
12 11.10 ЮВ 3
{5}
н/о н/о +29.4 +8.0 26 +29 +29 жарко 1015.6 985.8
13 11.10 ЮВ 2
{5}
н/о н/о +30.5 +6.9 23 +29 +29 жарко 1014.9 985.2
14 11.10 ЮВ 1
{5}
н/о н/о +33.1 +5.5 18 +31 +31 жарко 1013.5 984.1
15 11.10 В 2
{4}
н/о н/о +34.1 +2.8 14 +31 +31 жарко 1012.0 982.7
16 11.10 В 2
{6}
н/о н/о +34.7 +2.4 13 +32 +32 жарко 1010.2 981.1
17 11.10 ЮВ 2
{5}
н/о н/о +35.2 +1.6 12 +32 +32 жарко 1008.9 979.8
18 11.10 ЮВ 2
{4}
н/о н/о +35.3 +0.5 11 +32 +32 жарко 1008.3 979.3
19 11.10 В 2
{4}
н/о н/о +35.7 -1.7 9 +32 +32 жарко 1008.3 979.3
20 11.10 В 2
{4}
н/о н/о +34.4 -2.3 9 +30 +30 жарко 1008.8 979.7
21 11.10 В 1
{3}
н/о н/о +32.4 -0.4 12 +29 +29 жарко 1009.4 980.1
22 11.10 ЮВ 2
{2}
н/о н/о +31.1 +0.9 14 +28 +28 жарко 1010.0 980.5
23 11.10 В 4
{7}
н/о н/о +30.1 +7.0 23 +29 +29 жарко 1011.5 981.9
00 12.10 В 4
{7}
н/о н/о +27.5 +11.3 36 +28 +28 жарко 1013.4 983.5
01 12.10 В 4
{7}
н/о н/о +26.1 +12.5 43 +28 +28 жарко 1013.9 983.8
02 12.10 ЮВ 4
{6}
н/о н/о +25.3 +11.6 42 +27 +27 жарко 1014.3 984.1
03 12.10 ЮВ 3
{6}
н/о н/о +24.5 +12.0 46 +26 +26 жарко 1014.0 983.8
04 12.10 В 3
{6}
н/о н/о +24.5 +12.5 47 +26 +26 жарко 1013.7 983.5
05 12.10 ЮВ 3
{4}
н/о н/о +24.4 +12.6 48 +26 +26 жарко 1013.5 983.3
06 12.10 ЮВ 3
{4}
н/о н/о +24.0 +12.2 48 +26 +26 жарко 1013.5 983.2
07 12.10 ЮВ 2
{4}
н/о н/о +23.7 +12.5 49 +26 +26 жарко 1014.1 983.8
08 12.10 ЮВ 2
{4}
н/о н/о +23.2 +12.9 52 +26 +26 жарко 1014.7 984.3
09 12.10 В 2
{3}
н/о н/о +24.1 +13.3 51 +26 +26 жарко 1015.3 985.0
10 12.10 В 3
{5}
н/о н/о +26.2 +11.6 40 +27 +27 жарко 1015.6 985.5
11 12.10 В 3
{5}
н/о н/о +27.1 +9.9 34 +28 +28 жарко 1015.9 985.9
12 12.10 В 3
{5}
н/о н/о +29.1 +8.4 27 +29 +29 жарко 1015.8 986.0
13 12.10 ЮВ 3
{5}
н/о н/о +30.6 +5.9 21 +29 +29 жарко 1015.3 985.6
14 12.10 В 3
{5}
н/о н/о +32.7 +3.2 16 +30 +30 жарко 1014.0 984.6
15 12.10 В 2
{5}
н/о н/о +34.1 +1.9 13 +31 +31 жарко 1012.6 983.3
16 12.10 В 2
{5}
н/о н/о +35.3 +0.6 11 +32 +32 жарко 1011.1 982.0
17 12.10 В 2
{5}
н/о н/о +35.7 +0.1 11 +32 +32 жарко 1010.1 981.1
18 12.10 В 2
{4}
н/о н/о +36.2 -1.0 9 +32 +32 жарко 1009.5 980.5
19 12.10 ЮВ 1
{4}
н/о н/о +35.7 -1.5 9 +32 +32 жарко 1009.4 980.4
20 12.10 ЮВ 2
{3}
н/о н/о +34.2 -1.2 10 +30 +30 жарко 1009.9 980.7
21 12.10 В 2
{3}
н/о н/о +32.6 +0.5 13 +29 +29 жарко 1010.9 981.5
22 12.10 В 4
{6}
н/о н/о +31.3 +5.1 19 +29 +29 жарко 1011.8 982.3
23 12.10 В 4
{7}
н/о н/о +29.5 +8.2 26 +29 +29 жарко 1013.2 983.5
00 13.10 В 4
{7}
н/о н/о +27.9 +9.8 32 +28 +28 жарко 1014.3 984.4
01 13.10 В 3
{6}
н/о н/о +26.7 +11.7 39 +28 +28 жарко 1015.3 985.2
02 13.10 ЮВ 4
{6}
н/о н/о +25.8 +11.7 41 +27 +27 жарко 1015.5 985.3
03 13.10 В 4
{6}
н/о н/о +25.3 +12.1 44 +27 +27 жарко 1014.7 984.5
04 13.10 ЮВ 3
{5}
н/о н/о +25.1 +11.9 44 +27 +27 жарко 1014.1 983.9
05 13.10 ЮВ 3
{5}
н/о н/о +24.8 +11.8 44 +26 +26 жарко 1013.9 983.7
06 13.10 ЮВ 3
{5}
н/о н/о +24.3 +13.0 49 +26 +26 жарко 1014.1 983.8
07 13.10 ЮВ 2
{4}
н/о н/о +23.9 +13.3 51 +26 +26 жарко 1014.5 984.2
08 13.10 В 2
{4}
н/о н/о +23.6 +13.1 52 +26 +26 жарко 1015.0 984.6
09 13.10 В 2
{4}
н/о н/о +24.6 +13.7 51 +27 +27 жарко 1015.3 985.0
10 13.10 В 3
{4}
н/о н/о +26.1 +12.2 42 +28 +28 жарко 1015.7 985.6
11 13.10 ЮВ 3
{5}
н/о н/о +28.1 +10.0 32 +28 +28 жарко 1015.9 986.0
12 13.10 ЮВ 3
{5}
н/о н/о +29.6 +9.3 28 +29 +29 жарко 1015.6 985.8
13 13.10 В 2
{5}
н/о н/о +31.7 +7.8 23 +31 +31 жарко 1014.6 985.0
14 13.10 В 2
{5}
н/о н/о +32.7 +6.0 19 +31 +31 жарко 1013.3 983.9
15 13.10 В 2
{4}
н/о н/о +34.6 +3.6 14 +32 +32 жарко 1011.6 982.4
16 13.10 В 2
{5}
н/о н/о +35.8 +2.1 12 +32 +32 жарко 1010.1 981.1
17 13.10 В 2
{4}
н/о н/о +34.8 +1.2 12 +31 +31 жарко 1009.1 980.0
18 13.10 В 2
{4}
н/о н/о +36.7 -0.1 10 +33 +33 жарко 1008.5 979.6
19 13.10 В 2
{4}
н/о н/о +35.3 +0.1 11 +32 +32 жарко 1008.7 979.7
20 13.10 В 2
{4}
н/о н/о +34.7 -0.7 10 +31 +31 жарко 1009.3 980.2
22 13.10 В 3
{5}
н/о н/о +31.4 +7.6 23 +30 +30 жарко 1011.0 981.5
23 13.10 В 5
{7}
н/о н/о +28.5 +11.1 34 +29 +29 жарко 1012.9 983.1
00 14.10 В 4
{7}
н/о н/о +26.8 +13.2 43 +29 +29 жарко 1014.2 984.2
01 14.10 В 3
{6}
н/о н/о +26.3 +12.7 43 +28 +28 жарко 1014.7 984.6
02 14.10 В 3
{6}
н/о н/о +26.0 +13.3 45 +28 +28 жарко 1014.7 984.6
03 14.10 В 2
{5}
н/о н/о +25.9 +13.6 47 +28 +28 жарко 1013.9 983.8
04 14.10 В 2
{4}
н/о н/о +25.4 +13.7 48 +28 +28 жарко 1013.0 982.9
05 14.10 В 2
{4}
н/о н/о +24.8 +12.9 48 +27 +27 жарко 1012.9 982.7
06 14.10 В 2
{4}
н/о н/о +24.3 +14.2 53 +27 +27 жарко 1013.2 983.0
07 14.10 В 1
{3}
н/о н/о +23.6 +14.3 56 +26 +26 жарко 1013.6 983.3
08 14.10 штиль 0
{2}
н/о н/о +23.2 +14.5 58 +27 +27 душно 1014.0 983.6
09 14.10 В 2
{2}
н/о н/о +25.2 +13.5 48 +27 +27 жарко 1014.2 984.0
10 14.10 В 3
{4}
н/о н/о +26.4 +12.9 43 +28 +28 жарко 1014.3 984.2
11 14.10 В 2
{4}
н/о н/о +27.8 +11.3 36 +29 +29 жарко 1014.1 984.2
12 14.10 В 2
{5}
н/о н/о +29.7 +9.7 29 +30 +30 жарко 1013.9 984.2
13 14.10 ЮВ 2
{4}
н/о н/о +32.0 +9.0 24 +31 +31 жарко 1013.2 983.7
14 14.10 З 1
{4}
н/о н/о +32.8 +8.0 22 +31 +31 жарко 1012.2 982.8
15 14.10 С 1
{3}
н/о н/о +33.6 +6.0 18 +31 +31 жарко 1010.8 981.5
16 14.10 ЮВ 2
{3}
н/о н/о +34.1 +4.6 16 +32 +32 жарко 1009.4 980.2
17 14.10 В 1
{3}
н/о н/о +35.3 +3.8 14 +32 +32 жарко 1008.1 979.1
18 14.10 ЮВ 1
{3}
н/о н/о +35.8 +3.1 13 +33 +33 жарко 1007.5 978.5
19 14.10 СВ 1
{2}
н/о н/о +36.1 +3.1 13 +33 +33 жарко 1007.1 978.2
20 14.10 СВ 1
{2}
н/о н/о +34.9 +2.7 13 +32 +32 жарко 1007.4 978.4
21 14.10 С 1
{2}
н/о н/о +33.3 +4.5 16 +31 +31 жарко 1007.9 978.7
22 14.10
{2}
н/о н/о +32.7 +5.7 18 1008.6 979.3
23 14.10 СВ 3
{5}
н/о н/о +31.9 +7.3 22 +31 +31 жарко 1009.9 980.5
00 15.10 СВ 3
{5}
н/о н/о +30.2 +9.5 28 +30 +30 жарко 1011.3 981.7
01 15.10 В 3
{5}
н/о н/о +27.5 +13.2 41 +29 +29 жарко 1012.3 982.4
02 15.10 В 3
{5}
н/о н/о +26.8 +13.8 45 +29 +29 жарко 1012.7 982.7
03 15.10 В 2
{4}
н/о н/о +26.3 +13.9 46 +28 +28 жарко 1012.1 982.1
04 15.10 СВ 2
{3}
н/о н/о +26.0 +14.1 48 +28 +28 жарко 1012.1 982.1
05 15.10 СВ 2
{3}
н/о н/о +25.8 +14.4 49 +28 +28 жарко 1011.7 981.7
06 15.10 СВ 2
{3}
н/о н/о +25.8 +14.3 49 +28 +28 жарко 1011.8 981.8
07 15.10 СВ 1
{3}
н/о н/о +25.6 +14.2 49 +28 +28 жарко 1012.6 982.5
08 15.10 СВ 2
{3}
н/о н/о +25.6 +14.4 50 +28 +28 жарко 1012.8 982.7
09 15.10 В 1
{2}
н/о н/о +26.0 +14.3 48 +28 +28 жарко 1013.4 983.3
10 15.10 В 2
{2}
н/о н/о +26.5 +14.2 47 +29 +29 жарко 1013.9 983.9
11 15.10 В 1
{3}
н/о н/о +26.6 +13.9 46 +29 +29 жарко 1014.1 984.1
12 15.10 ЮВ 1
{2}
н/о н/о +27.4 +13.3 42 +29 +29 жарко 1014.1 984.1
13 15.10 В 1
{3}
н/о н/о +29.6 +12.2 34 +30 +30 жарко 1013.1 983.4
14 15.10 С 1
{3}
н/о н/о +30.2 +11.2 31 +31 +31 жарко 1012.4 982.8
15 15.10 С 1
{2}
н/о н/о +31.2 +10.1 27 +31 +31 жарко 1011.3 981.8
16 15.10 С 2
{3}
н/о н/о +31.9 +8.5 23 +31 +31 жарко 1010.1 980.7
17 15.10 С 2
{4}
н/о н/о +33.0 +7.8 21 +31 +31 жарко 1008.8 979.5
18 15.10 С 1
{3}
н/о н/о +33.3 +8.1 21 +32 +32 жарко 1008.2 979.0
19 15.10 С 1
{4}
н/о н/о +33.6 +7.4 20 +32 +32 жарко 1007.9 978.7
20 15.10 С 2
{3}
н/о н/о +32.6 +8.2 22 +31 +31 жарко 1008.0 978.7
21 15.10 С 2
{3}
н/о н/о +31.9 +8.2 23 +31 +31 жарко 1008.5 979.1
22 15.10 С 2
{3}
н/о н/о +31.5 +8.8 24 +30 +30 жарко 1009.1 979.7
23 15.10
{6}
н/о н/о +29.4 +12.3 35 1010.1 980.5
00 16.10 С 3
{7}
н/о н/о +27.9 +14.2 43 +30 +30 жарко 1011.6 981.8
01 16.10 СВ 3
{5}
н/о н/о +26.7 +16.0 52 +30 +30 душно 1012.5 982.5 0.8
02 16.10 СВ 2
{5}
н/о н/о +23.8 +19.7 78 +29 +29 душно 1012.9 982.6 2
03 16.10 СВ 1
{4}
н/о н/о +23.8 +20.3 81 +29 +29 душно 1012.9 982.6 0.4
04 16.10 С 1
{2}
н/о н/о +23.5 +19.8 80 +29 +29 душно 1012.8 982.5 0.8
05 16.10 С 1
{2}
н/о н/о +22.9 +19.7 82 +29 +29 очень
душно
1012.6 982.2
06 16.10 СЗ 1
{2}
н/о н/о +22.4 +19.2 82 +28 +28 душно 1012.8 982.4
07 16.10
{2}
н/о н/о +22.7 +18.9 79 1012.7 982.3
08 16.10 штиль 0
{2}
н/о н/о +22.8 +18.9 79 +29 +29 очень
душно
1013.2 982.8
09 16.10 ЮЗ 1
{2}
н/о н/о +23.2 +19.0 77 +29 +29 душно 1014.3 983.9
10 16.10 штиль 0
{2}
н/о н/о +25.5 +18.3 64 +30 +30 душно 1013.8 983.7

 

Местоположение метеостанции Patos (Бразилия): широта -7.08 долгота -37.27 высота над уровнем моря 282 м.

В архиве по умолчанию представлена погода в Patos за последнюю неделю. Архивные данные за месяц целиком и за предыдущие месяцы, начиная с января 2011 года, Вы можете получить, выбрав интересующий диапазон дат из раскрывающегося списка и нажав кнопку "Ввод!".


*Определитесь, кто Вы:
робот инопланетянин человек

Внимание! Время в таблицах - всемирное. Для получения местного времени необходимо прибавить поправку, которая в Patos равна -3 ч.

Смотрите также архив погоды в соседних городах и на ближайших метеорологических станциях:

Погода в Patos (Бразилия) (7 км)
Погода в Caico (Бразилия) (72 км)
Погода в Monteiro (Бразилия) (93 км)
Погода в Sao Goncalo (Бразилия) (118 км)
Погода в Cabaceiras (Бразилия) (118 км)
Погода в Triunfo (Бразилия) (128 км)
Погода в Serra Talhada (Бразилия) (149 км)
Погода в Arco Verde (Бразилия) (152 км)
Погода в Campina Grande (Бразилия) (152 км)
Погода в Campina Grande (Бразилия) (154 км)

Пояснения к столбцам:

Ветер - указаны скорость ветра в м/с - средняя за 10 мин, порывы в срок и между сроками (в фигурных скобках) и направление, откуда дует ветер: С - северный, СВ - северо-восточный, В - восточный, ЮВ - юго-восточный, Ю - южный, ЮЗ - юго-западный, З - западный, СЗ - северо-западный.
Видимость - горизонтальная дальность видимости в метрах или километрах. При видимости от 1 до 10 км при отсутствии осадков обычно наблюдается дымка, при ухудшении видимости до 1 км и менее - туман. В сухую погоду видимость может ухудшаться дымом, пылью или мглою.
Явления - указаны атмосферные явления, наблюдавшиеся в срок или в последний час перед сроком; фигурными скобками обозначены явления, наблюдавшиеся между сроками (за 1-3 часа до срока); квадратными скобками обозначены град или гололедные отложения с указанием их диаметра в мм.
Облачность - указаны через наклонную черту общая и нижняя облачность в баллах и высота нижней границы облаков в метрах; квадратными скобками обозначены формы облаков: Ci - перистые, Cs - перисто-слоистые, Cc - перисто-кучевые, Ac - высококучевые, As - высокослоистые, Sc - слоисто-кучевые, Ns - слоисто-дождевые, Cu - кучевые, Cb - кучево-дождевые. Подробнее классификацию облаков см. в Атласе облаков (PDF).
T - Температура воздуха - температура, измеренная на высоте 2 м над землей.
Td - Температура точки росы - температура, при понижении до которой содержащийся в воздухе водяной пар достигнет насыщения.
f - Относительная влажность воздуха - влажноcть воздуха, измеренная на высоте 2 м над землей.
Te - Эффективная температура - температура, которую ощущает одетый по сезону человек в тени. Характеристика душности погоды. При расчете учитывается влияние влажности воздуха и скорости ветра на теплоощущения человека.
Tes - Эффективная температура на солнце - температура, которую ощущает человек, с поправкой на солнечный нагрев. Характеристика знойности погоды. Зависит от высоты солнца над горизонтом, облачности и скорости ветра. Ночью, в пасмурную погоду, а также при ветре 12 м/с и более поправка равна нулю.
P - Атмосферное давление - приведенное к уровню моря атмосферное давление.
Po - Атмосферное давление - измеренное на уровне метеостанции атмосферное давление.
Tmin - Минимальная температура - минимум температуры воздуха на высоте 2 м над землей.
Tmax - Максимальная температура - максимум температуры воздуха на высоте 2 м над землей.
R - Количество осадков - Количество выпавших осадков за период времени, мм. При наведении курсора мыши на число - период времени, за который выпало указанное количество осадков.
R24 - Количество осадков - Количество выпавших осадков за 24 часа, мм.
S - Снежный покров - Высота снежного покрова, см. При наведении курсора мыши на число - состояние снежного покрова и степень покрытия местности в баллах.